Regional Weather Roundup
Issued by NWS Charleston, SC

Current Version | Previous Version | Graphics & Text | Print | Product List | Glossary On
Versions: 1 2 3 4 5 6 7 8 9 10 11 12 13 14 15 16 17 18 19 20 21 22 23 24 25 26 27 28 29 30 31 32 33 34 35 36 37 38 39 40 41 42 43 44 45 46 47 48 49 50
000
ASUS42 KCHS 261126
RWRCHS

REGIONAL WEATHER ROUNDUP
NATIONAL WEATHER SERVICE CHARLESTON SC
700 AM EDT THU MAR 26 2015

NOTE: "FAIR" INDICATES FEW OR NO CLOUDS BELOW 12,000 FEET WITH NO
SIGNIFICANT WEATHER AND/OR OBSTRUCTIONS TO VISIBILITY.

NOT ALL STATIONS ARE QUALITY CONTROLLED BY THE NATIONAL
WEATHER SERVICE. USE DATA WITH CAUTION...ESPECIALLY
DEWPOINT OBSERVATIONS.

SCZ027-030-031-034>040-042>050-261200-
...SOUTHEAST SOUTH CAROLINA...

CITY           SKY/WX    TMP DP  RH WIND       PRES   REMARKS
N CHARLESTON   MOCLDY    59  58  96 W9        30.01R
WATERFRONT PRK   N/A     61 N/A N/A SW6         N/A
MOUNT PLEASANT CLOUDY    63  61  94 SW6       30.01R
PINOPOLIS        N/A     63  63 100 SW6       29.92S
MONCKS CORNER  CLOUDY    61  59  94 SW3       30.01R FOG
SUMMERVILLE    NOT AVBL
BEAUFORT MCAS  CLOUDY    60  60 100 SW6       30.03R FOG
BEAUFORT ARPT  FOG       61  61 100 CALM      30.02S VSB 1
HILTON HEAD IS FOG       59  59 100 E3        30.03F VSB 1/2
WALTERBORO     CLOUDY    59  59 100 SW5       30.03S FOG
ALLENDALE      CLOUDY    63  63 100 CALM      30.02R FOG

...SOUTHERN MIDLANDS AND PEE DEE...

CITY           SKY/WX    TMP DP  RH WIND       PRES   REMARKS
GEORGETOWN     NOT AVBL
KINGSTREE      NOT AVBL
ORANGEBURG     CLOUDY    62  59  90 SW9       30.01S
BARNWELL       CLOUDY    63  63 100 S5        30.02S FOG
AIKEN          CLOUDY    59  59 100 SW8       30.03F
MANNING        CLOUDY    59  57  94 W5        30.01R
COLUMBIA       CLOUDY    63  60  90 SW9       29.99S
SUMTER         CLOUDY    63  61  94 SW6       29.98R
FLORENCE       PTCLDY    63  61  93 W3        29.98F
MYRTLE BEACH   CLOUDY    64  63  94 S8        30.01S VSB 1/2
N MYRTLE BEACH HVY RAIN  65  64  97 S9        29.99S FOG

$$

GAZ063-065-086>088-099>101-113>116-118-119-134>141-150-261200-
...SOUTHEAST GEORGIA...

CITY           SKY/WX    TMP DP  RH WIND       PRES   REMARKS
SAVANNAH ARPT  CLOUDY    60  59  96 CALM      30.03S FOG
HUNTER AAF     FOG       59  59 100 W2        30.01S VSB 1/2
FORT STEWART   CLOUDY    60  58  95 CALM      30.01S
STATESBORO     CLOUDY    61  61 100 CALM      30.02S
SYLVANIA       CLOUDY    62  62 100 CALM      30.03S
CLAXTON        CLOUDY    61  61 100 CALM      30.02S FOG

...CSRA...CENTRAL AND FAR SOUTHEAST GEORGIA...

CITY           SKY/WX    TMP DP  RH WIND       PRES   REMARKS
THOMSON        CLOUDY    62  62 100 CALM      30.05S
AUGUSTA-BUSH   MOCLDY    63  61  93 SW7       30.00F
AUGUSTA-DANIEL CLOUDY    63  60  90 SW6       30.01S
SWAINSBORO     CLOUDY    63  63 100 CALM      30.03R FOG
VIDALIA        CLOUDY    63  61  94 S5        30.02S FOG
EASTMAN        FOG       57  57 100 CALM      30.05S VSB 3/4
HAZLEHURST     FAIR      61  61 100 S3        30.02R FOG
ALMA           MOCLDY    59  58  96 S3        30.02S FOG
WAYCROSS       MOCLDY    61  61 100 SW5       30.03S FOG
JESUP          FAIR      61  61 100 CALM      30.04R FOG
BAXLEY         CLOUDY    61  61 100 CALM      30.03R FOG
BRUNSWICK      CLOUDY    55  55 100 CALM      30.04S VSB 1
SAINT SIMONS   FOG       61  60  97 CALM      30.03S VSB 3/4

$$

SCZ027-028-034-036>038-045-046-048>050-GAZ119-141-261200-
...LAKE AND SUPPLEMENTAL COASTAL OBSERVATIONS...

STATION/POSITION TIME  TEMP    WIND        PRES    WAVE   SWELL
                       AIR SEA DIR/SP/G            HT/PER HT/PER/DIR
                 (UTC) (F)     (DEG/KT/KT) (MB)    (FT/S) (FT/S/D)
UPR LAKE MARION  NOT AVBL
WINYAH BAY       1000   63        CALM     1014.0
LAKE MURRAY      1100   62     220/  9/ 11 1015.2R
ACE BASIN NERRS  NOT AVBL
FORT PULASKI     1100   59 62  280/  5/  6 1017.3R
SAPELO ISLAND    1100   58        CALM     1017.0R

$$

ANZ835-935-AMZ111-154-330-350-352-354-370-450-454-472-261200-
...C-MAN AND BUOY OBSERVATIONS...

STATION/POSITION TIME  TEMP    WIND        PRES    WAVE   SWELL
                       AIR SEA DIR/SP/G            HT/PER HT/PER/DIR
                 (UTC) (F)     (DEG/KT/KT) (MB)    (FT/S) (FT/S/D)
BUOY 41004       1050   67 70  270/ 10/ 16 1015.2R   8/ 8   7/ 8
BUOY 41008       1050   60 61  310/  2/  4 1016.9R   3/ 8   3/ 80/ 8
FOLLY BEACH CMAN 1100   61     240/  5/  8 1016.0R
CAPERS NEARSHORE NOT AVBL
FRIPP NEARSHORE  1000   59     270/  8/ 10 1016.5R


STATION/POSITION TIME  TEMP    WIND        PRES    WAVE   SWELL
                       AIR SEA DIR/SP/G            HT/PER HT/PER/DIR
                 (UTC) (F)     (DEG/KT/KT) (MB)    (FT/S) (FT/S/D)
5E ST. MARYS GA  1021      62                N/A     3/ 8
FRYING PAN BUOY  1050   73 69  150/ 21/ 27 1016.2R   8/ 8
BUOY 41025       NOT AVBL
CAPE LOOKOUT NC  1100   65     150/ 18/ 19 1017.3F
BUOY 41002       1050   69 70  160/ 19/ 23 1021.0F   7/ 7   2/ 60/13
BUOY 41010       1020   76 76  180/ 12/ 16 1017.2R
ST AUGUSTINE FL  1100   61 64   CALM  /  1 1017.9R


$$



USA.gov is the U.S. government's official web portal to all federal, state and local government web resources and services.